Vertical_Velocity
0 0 3 0 2 0 -0 1 1 -0 -0 2 1 -0 -2 -3 -3 -3 -2 -1 -1 -2
0 -2 1 2 -1 -1 1 1 0 -1 1 1 1 -1 -1 -2 -3 -3 -3 -2 -2 -2
7 1 0 1 3 2 1 0 -0 -1 0 1 0 -1 -1 -1 -1 -2 -2 -1 -2 -2
2 -1 2 3 2 2 1 2 0 0 1 1 1 -1 -0 -1 -2 -2 -2 -2 -1 -1
-2 3 0 1 2 2 2 2 2 1 1 0 -1 -0 -1 -1 -3 -2 -1 -2 -2 -2
1 3 3 3 1 1 2 3 2 2 1 -1 -0 -1 0 -2 -2 -1 -1 -2 -3 -2
2 4 2 3 1 1 1 3 2 1 -0 -0 -0 -0 -1 0 -1 -1 -2 -2 -2 -2
2 2 3 2 0 2 0 1 2 -0 2 0 -1 1 -0 -2 -2 -2 -2 -2 -2 -2
4 -9 3 3 2 -0 0 1 -0 2 0 0 1 -0 -1 -2 -2 -1 -1 -1 -2 -2
1 3 3 3 0 1 -0 -1 1 1 2 1 -0 -1 -2 -1 -1 -1 -2 -3 -3 -2
3 2 2 1 1 -2 -0 1 2 2 0 -0 -1 -1 -1 -1 -1 -3 -2 -2 -2 -3
2 0 1 -1 -1 1 1 1 1 -0 -0 0 0 -0 -1 -1 -2 -2 -0 -1 -1 0
0 -1 -1 4 -1 -1 0 -0 -0 0 2 1 -1 1 -1 -1 -4 -4 -2 -1 -1 0
3 4 0 -0 -1 -1 0 0 0 0 -0 -0 1 -2 -2 -3 -4 -4 -2 -2 -2 -3
Height
3058 3061 3065 3067 3070 3073 3075 3077 3078 3078 3077 3076 3074 3071 3068 3065 3060 3056 3052 3047 3042 3037
3053 3057 3060 3063 3066 3069 3071 3072 3073 3073 3072 3070 3067 3065 3062 3057 3053 3048 3043 3038 3033 3027
3050 3052 3056 3059 3063 3065 3067 3068 3068 3067 3066 3064 3061 3058 3054 3050 3045 3040 3034 3029 3023 3017
3045 3048 3052 3055 3058 3060 3062 3063 3062 3061 3060 3058 3054 3050 3046 3041 3037 3032 3026 3019 3013 3008
3041 3044 3048 3051 3054 3056 3057 3057 3057 3055 3053 3051 3047 3042 3038 3033 3028 3023 3016 3011 3005 2999
3037 3041 3044 3047 3050 3051 3052 3052 3051 3049 3046 3043 3039 3034 3029 3024 3019 3013 3007 3001 2995 2989
3034 3037 3040 3043 3045 3047 3047 3046 3044 3042 3039 3035 3030 3025 3020 3015 3010 3004 2998 2992 2985 2978
3029 3034 3036 3039 3041 3041 3041 3040 3037 3034 3031 3026 3022 3017 3011 3005 3000 2994 2988 2981 2975 2968
3026 3029 3033 3034 3035 3036 3035 3033 3029 3026 3022 3018 3013 3008 3003 2997 2990 2984 2978 2971 2965 2958
3023 3026 3028 3029 3030 3030 3027 3024 3021 3018 3014 3009 3005 3000 2994 2988 2981 2975 2969 2962 2955 2946
3020 3022 3024 3024 3024 3022 3019 3016 3013 3010 3006 3002 2997 2990 2984 2978 2972 2967 2960 2952 2943 2934
3017 3018 3019 3018 3017 3014 3012 3009 3006 3002 2998 2993 2987 2982 2975 2970 2964 2956 2949 2941 2933 2924
3013 3013 3012 3011 3009 3007 3005 3002 2999 2994 2990 2985 2980 2973 2968 2962 2953 2946 2939 2931 2921 2913
3007 3007 3006 3004 3003 3001 2999 2995 2991 2987 2982 2976 2972 2966 2959 2953 2945 2936 2927 2919 2912 2905